User: anonymous   Login
Location: Whitehorse
(60.7170°N, 135.0500°W)
Time: 17:20:59
(UTC-08:00)
Language:

Cosmos 2219 Rocket - Orbit

View from above orbital plane
View from above orbital plane
View from above satellite
View from above satellite

Ground track
Ground track

The orbit data is extracted from the following two-line orbital elements,

1 22220U 92076B   16037.21828693  .00000125  00000-0  86904-4 0  9997
2 22220  71.0005  25.3163 0014787 304.1551 137.5995 14.16390905200402
Epoch (UTC): 06 February 2016 05:14:19
Eccentricity: 0.0014787
inclination: 71.0005°
perigee height: 827 km
apogee height: 848 km
right ascension of ascending node: 25.3163°
argument of perigee: 304.1551°
revolutions per day: 14.16390905
mean anomaly at epoch: 137.5995°
orbit number at epoch: 20040

The dashed part of the orbit path shows where the satellite is in the earth's shadow,  

DLR